Retour au catalogue

STARLINK-32673

ActifCommunicationsVLEO
NORAD 63000·PAYLOAD·🇺🇸 United States

Lancé Feb 11, 2025 depuis Cape Canaveral Space Force Station

Loading…

Prochains Passages (prochaines 24 heures)

TLE

FraisSource: CelesTrak SupGP

Époque: Sep 14, 2026, 20:44 UTC

1 63000C 25031V   26257.86437500 -.00034086  00000+0 -12343-2 0  2579
2 63000  43.0016 155.0760 0001360 269.9263 171.6944 15.27602656    19

Suivez STARLINK-32673 en temps réel avec AllMySat

Download on the App Store